{"data":{"norad_id":55436,"intl_designator":"2023-014AX","name":"STARLINK-5640","alt_names":[],"object_type":"PAYLOAD","status":"ACTIVE","operator":null,"country":"US","launch_date":"2023-01-31","launch_site_code":"AFWTR","launch_vehicle":null,"mission":null,"orbit_class":"UNKNOWN","rcs_meters":null,"size_class":null,"mass_kg":null,"dimensions":null,"purposes":["comms"],"wikipedia_slug":null,"has_3d_model":false,"image_url":null,"decayed_at":null,"tle_current":{"epoch":"2026-09-20T22:28:49.926144Z","epoch_age_seconds":58937,"freshness":"FRESH","line1":"1 55436U 23014AX  26263.93668896 -.00000121  00000+0 -23230-5 0  9997","line2":"2 55436  69.9995 332.2176 0003399 270.8304  89.2465 14.98331044200311","mean_motion":14.98331044,"eccentricity":0.0003399,"inclination_deg":69.9995,"raan_deg":332.2176,"arg_perigee_deg":270.8304,"mean_anomaly_deg":89.2465,"bstar":-2.323e-6,"rev_number":20031,"period_min":96.106932160714,"perigee_km":569.69029299614,"apogee_km":574.41503192868,"semimajor_km":6950.1896624624,"source":"CELESTRAK","updated_at":"2026-09-21T09:00:33.223736Z"}}}